Simultaneous Nadir Overpasses (SNOs) Predictions

Prediction of SNOs between NOAA-20 and NOAA-19 Satellite Orbit:

Table of predicted SNOs for the next 14.0 days since TLE Epoch: 3/30/2024
Index Date (NOAA-20) Time (NOAA-20) Lat,Lon (NOAA-20) SZA (NOAA-20 ) Date (NOAA-19) Time (NOAA-19) Lat,Lon (NOAA-19) SZA (NOAA-19 ) Distance(km) Time Diff (sec)
1 04/08/2024 07:49:21 -73.28,-126.43 113.99 04/08/2024 07:48:10 -73.28,-127.89 113.90 46.45 71
2 04/08/2024 08:40:07 73.59, 40.21 66.33 04/08/2024 08:39:04 73.59, 40.10 66.35 3.51 63
3 04/08/2024 09:30:50 -73.60,-152.50 113.67 04/08/2024 09:30:01 -73.63,-152.53 113.63 3.26 49
4 04/08/2024 10:21:31 73.66, 14.70 66.39 04/08/2024 10:21:01 73.65, 14.75 66.38 2.22 30
5 04/08/2024 11:12:14 -73.68,-178.01 113.62 04/08/2024 11:11:59 -73.64,-178.00 113.64 3.53 15
6 04/08/2024 12:02:54 73.68, -10.69 66.38 04/08/2024 12:02:59 73.66, -10.72 66.36 2.78 5
7 04/08/2024 12:53:37 -73.70, 156.59 113.62 04/08/2024 12:53:56 -73.70, 156.66 113.62 2.22 19
8 04/08/2024 13:44:17 73.70, -36.09 66.38 04/08/2024 13:44:56 73.72, -36.06 66.38 1.77 39
9 04/08/2024 14:35:00 -73.72, 131.20 113.62 04/08/2024 14:35:54 -73.71, 131.20 113.64 0.34 54
10 04/08/2024 15:25:40 73.72, -61.48 66.38 04/08/2024 15:26:54 73.73, -61.52 66.36 1.50 74
11 04/08/2024 16:16:34 -74.28, 104.48 113.02 04/08/2024 16:17:41 -74.25, 107.10 113.20 79.11 67



Historial Predications of SNOs between NOAA-20 and NOAA-19
